Weather History for Lexington, NE

Change the Weather History Date:

Sunday, January 22, 2012

  Actual Average Record
Temperature  
Mean Temperature 32 °F -  
Max Temperature 45 °F 36 °F 62 °F (2009)
Min Temperature 18 °F 14 °F -5 °F (2008)
Degree Days  
Heating Degree Days 34    
Moisture  
Dew Point 24 °F    
Average Humidity 74    
Maximum Humidity 87    
Minimum Humidity 53    
Precipitation  
Precipitation 0.00 in - - ()
Sea Level Pressure  
Sea Level Pressure 29.42 in    
Wind  
Wind Speed 12 mph (NNW)    
Max Wind Speed 36 mph    
Max Gust Speed 51 mph    
Visibility 10 miles    
Events Rain    
Averages and records for this station are not official NWS values.
T = Trace of Precipitation, MM = Missing Value Source: NWS Daily Summary

Daily Weather History Graph

Daily Weather History Graph

Search for Another Location

Airport:

Trip Planner

Search our weather history database for the weather conditions in past years. The results will help you decide how hot, cold, wet, or windy it might be!

Date:

Astronomy

Jan. 22, 2012 Rise Set
Actual Time 7:57 AM CST 5:43 PM CST
Civil Twilight 7:28 AM CST 6:13 PM CST
Nautical Twilight 6:54 AM CST 6:47 PM CST
Astronomical Twilight 6:22 AM CST 7:19 PM CST
Moon 7:15 AM CST (1/22) 5:27 PM CST (1/22)
Length of Visible Light 10h 45m
Length of Day
9h 46m
Waning Crescent, 0% of the Moon is Illuminated
Jan 22
Waning Crescent
Jan 23
New
Jan 30
First Quarter
Feb 7
Full
Feb 14
Last Quarter

Hourly Weather History & Observations

Time (CST) Temp. Windchill Dew Point Humidity Pressure Visibility Wind Dir Wind Speed Gust Speed Precip Events Conditions
12:15 AM 26.6 °F 16.2 °F 17.6 °F 69% 29.35 in 10.0 mi SSE 11.5 mph - N/A   Clear
12:35 AM 26.6 °F 15.7 °F 17.6 °F 69% 29.34 in 10.0 mi SSE 12.7 mph - N/A   Clear
12:55 AM 26.4 °F 17.3 °F 18.0 °F 70% 29.34 in 10.0 mi SSE 9.2 mph - N/A   Clear
1:15 AM 25.7 °F 18.0 °F 17.6 °F 71% 29.34 in 10.0 mi SE 6.9 mph - N/A   Clear
1:35 AM 26.2 °F 19.6 °F 18.5 °F 73% 29.34 in 10.0 mi SE 5.8 mph - N/A   Clear
1:55 AM 25.5 °F 19.9 °F 17.8 °F 72% 29.33 in 10.0 mi ESE 4.6 mph - N/A   Clear
2:15 AM 22.5 °F 15.1 °F 16.5 °F 78% 29.32 in 10.0 mi East 5.8 mph - N/A   Clear
2:35 AM 21.6 °F 14.0 °F 16.7 °F 82% 29.31 in 10.0 mi East 5.8 mph - N/A   Clear
2:55 AM 25.2 °F 18.3 °F 18.7 °F 76% 29.30 in 10.0 mi East 5.8 mph - N/A   Clear
3:15 AM 25.5 °F 18.7 °F 18.7 °F 75% 29.28 in 10.0 mi ESE 5.8 mph - N/A   Clear
3:35 AM 25.3 °F 21.1 °F 18.5 °F 75% 29.30 in 10.0 mi NE 3.5 mph - N/A   Clear
3:55 AM 23.0 °F 17.0 °F 17.1 °F 78% 29.30 in 10.0 mi NE 4.6 mph - N/A   Clear
4:15 AM 21.0 °F 14.6 °F 15.8 °F 80% 29.30 in 10.0 mi NNE 4.6 mph - N/A   Clear
4:35 AM 20.5 °F 14.0 °F 15.8 °F 82% 29.29 in 10.0 mi NE 4.6 mph - N/A   Clear
4:55 AM 19.0 °F 11.1 °F 14.7 °F 83% 29.28 in 10.0 mi NE 5.8 mph - N/A   Clear
5:15 AM 19.6 °F - 16.0 °F 86% 29.27 in 10.0 mi Calm Calm - N/A   Clear
5:35 AM 18.1 °F 12.9 °F 14.4 °F 85% 29.27 in 10.0 mi North 3.5 mph - N/A   Clear
5:55 AM 18.0 °F 12.7 °F 14.5 °F 86% 29.28 in 10.0 mi NNW 3.5 mph - N/A   Clear
6:15 AM 20.7 °F 13.0 °F 16.9 °F 85% 29.28 in 10.0 mi WNW 5.8 mph - N/A   Clear
6:55 AM 19.6 °F 11.7 °F 16.2 °F 87% 29.29 in 10.0 mi NW 5.8 mph - N/A   Clear
7:15 AM 21.7 °F 14.3 °F 18.1 °F 86% 29.31 in 10.0 mi West 5.8 mph - N/A   Scattered Clouds
7:35 AM 23.0 °F 15.8 °F 18.3 °F 82% 29.31 in 10.0 mi NW 5.8 mph - N/A   Mostly Cloudy
8:15 AM 23.4 °F 18.9 °F 18.3 °F 81% 29.30 in 10.0 mi NW 3.5 mph - N/A   Scattered Clouds
8:35 AM 23.0 °F - 18.5 °F 83% 29.29 in 7.0 mi Calm Calm - N/A   Clear
8:55 AM 25.9 °F 21.7 °F 19.9 °F 78% 29.31 in 10.0 mi NW 3.5 mph - N/A   Mostly Cloudy
9:15 AM 27.3 °F - 20.1 °F 74% 29.32 in 10.0 mi Calm Calm - N/A   Mostly Cloudy
9:35 AM 29.1 °F 24.1 °F 20.7 °F 71% 29.33 in 10.0 mi NW 4.6 mph - N/A   Mostly Cloudy
9:55 AM 30.9 °F 24.3 °F 20.8 °F 66% 29.34 in 10.0 mi NW 6.9 mph - N/A   Overcast
10:15 AM 32.0 °F 24.8 °F 21.7 °F 66% 29.36 in 10.0 mi NW 8.1 mph - N/A   Overcast
10:35 AM 33.6 °F 24.6 °F 23.5 °F 67% 29.37 in 10.0 mi NW 12.7 mph - N/A   Overcast
10:55 AM 35.2 °F 26.6 °F 25.7 °F 68% 29.38 in 10.0 mi NW 12.7 mph - N/A   Overcast
11:15 AM 40.5 °F 31.8 °F 28.8 °F 63% 29.39 in 10.0 mi NNW 17.3 mph - N/A   Overcast
11:35 AM 45.3 °F 36.3 °F 29.1 °F 53% 29.40 in 10.0 mi NNW 26.5 mph 31.1 mph N/A   Overcast
11:55 AM 43.5 °F 34.7 °F 29.3 °F 57% 29.41 in 10.0 mi NNW 21.9 mph 32.2 mph N/A   Overcast
12:15 PM 42.8 °F 33.5 °F 31.5 °F 64% 29.41 in 10.0 mi NNW 23.0 mph 27.6 mph N/A   Light Drizzle
12:35 PM 42.8 °F 32.3 °F 32.0 °F 66% 29.43 in 10.0 mi NNW 29.9 mph 36.8 mph N/A Rain Light Rain
12:55 PM 42.1 °F 31.3 °F 32.0 °F 67% 29.44 in 10.0 mi NNW 29.9 mph 34.5 mph N/A   Light Drizzle
1:15 PM 40.8 °F 29.6 °F 32.0 °F 71% 29.45 in 10.0 mi NNW 29.9 mph 36.8 mph N/A Rain Light Rain
1:35 PM 38.7 °F 26.9 °F 32.0 °F 77% 29.47 in 10.0 mi NNW 28.8 mph 38.0 mph N/A Rain Light Rain
1:55 PM 37.4 °F 26.4 °F 32.5 °F 83% 29.47 in 5.0 mi NNW 23.0 mph 35.7 mph N/A Rain Light Rain
2:15 PM 37.9 °F 26.8 °F 33.3 °F 83% 29.48 in 7.0 mi NNW 24.2 mph 33.4 mph N/A Rain Light Rain
2:35 PM 38.3 °F 26.8 °F 33.1 °F 81% 29.49 in 10.0 mi NNW 26.5 mph 38.0 mph N/A   Light Drizzle
2:55 PM 37.9 °F 27.3 °F 33.8 °F 85% 29.51 in 10.0 mi NW 21.9 mph 32.2 mph N/A Rain Rain
3:15 PM 37.8 °F 25.7 °F 33.4 °F 84% 29.52 in 10.0 mi NW 28.8 mph 35.7 mph N/A   Drizzle
3:35 PM 37.4 °F 25.4 °F 33.1 °F 84% 29.53 in 10.0 mi NNW 27.6 mph 38.0 mph N/A   Light Drizzle
3:55 PM 38.3 °F 26.8 °F 32.2 °F 79% 29.54 in 10.0 mi NNW 26.5 mph 34.5 mph N/A   Overcast
4:15 PM 39.2 °F 26.5 °F 32.0 °F 75% 29.55 in 10.0 mi NNW 35.7 mph 41.4 mph N/A   Overcast
4:35 PM 38.5 °F 26.0 °F 32.0 °F 78% 29.57 in 10.0 mi NNW 32.2 mph 42.6 mph N/A   Overcast
4:55 PM 38.5 °F 26.2 °F 31.6 °F 76% 29.58 in 10.0 mi NNW 31.1 mph 39.1 mph N/A   Overcast
5:15 PM 38.5 °F 26.4 °F 30.9 °F 74% 29.59 in 10.0 mi NNW 29.9 mph 38.0 mph N/A   Overcast
5:35 PM 37.8 °F 26.3 °F 31.8 °F 79% 29.60 in 10.0 mi NW 25.3 mph 34.5 mph N/A   Overcast
6:15 PM 38.7 °F 25.9 °F 29.3 °F 69% 29.63 in 10.0 mi NNW 34.5 mph 50.6 mph N/A   Overcast
6:35 PM 38.3 °F 26.2 °F 29.1 °F 70% 29.64 in 10.0 mi NNW 29.9 mph 41.4 mph N/A   Overcast
6:55 PM 38.3 °F 26.8 °F 28.4 °F 68% 29.66 in 10.0 mi NNW 26.5 mph 40.3 mph N/A   Overcast
7:15 PM 37.9 °F 26.6 °F 28.0 °F 68% 29.66 in 10.0 mi NNW 25.3 mph 34.5 mph N/A   Overcast
7:35 PM 37.8 °F 26.6 °F 27.0 °F 65% 29.66 in 10.0 mi NNW 24.2 mph 32.2 mph N/A   Mostly Cloudy
7:55 PM 38.3 °F 26.6 °F 26.2 °F 62% 29.67 in 10.0 mi NNW 27.6 mph 36.8 mph N/A   Scattered Clouds
8:15 PM 38.3 °F 27.8 °F 25.5 °F 60% 29.69 in 10.0 mi NW 21.9 mph 29.9 mph N/A   Mostly Cloudy
8:35 PM 37.4 °F 26.9 °F 24.8 °F 60% 29.70 in 10.0 mi NW 20.7 mph - N/A   Mostly Cloudy
8:55 PM 37.0 °F 26.2 °F 24.6 °F 61% 29.71 in 10.0 mi NW 21.9 mph 26.5 mph N/A   Overcast
9:15 PM 37.2 °F 26.4 °F 24.8 °F 61% 29.72 in 10.0 mi WNW 21.9 mph 26.5 mph N/A   Overcast
9:35 PM 36.7 °F 26.0 °F 24.6 °F 62% 29.73 in 10.0 mi WNW 20.7 mph 26.5 mph N/A   Overcast
9:55 PM 36.7 °F 26.3 °F 23.5 °F 59% 29.73 in 10.0 mi WNW 19.6 mph 28.8 mph N/A   Overcast
10:15 PM 36.5 °F 25.7 °F 24.8 °F 63% 29.74 in 10.0 mi WNW 20.7 mph 27.6 mph N/A   Overcast
10:35 PM 36.5 °F 25.4 °F 23.9 °F 60% 29.74 in 10.0 mi NW 21.9 mph 28.8 mph N/A   Overcast
10:55 PM 34.9 °F 24.2 °F 23.7 °F 64% 29.74 in 10.0 mi WNW 18.4 mph 24.2 mph N/A   Scattered Clouds
11:15 PM 33.1 °F 22.2 °F 23.9 °F 69% 29.75 in 10.0 mi WNW 17.3 mph - N/A   Clear
11:35 PM 32.7 °F 23.0 °F 23.2 °F 68% 29.75 in 10.0 mi NW 13.8 mph - N/A   Clear